HB9ADJ Weather Reports


time (UTC)temp
F
wind
direction
speed
knots
gust
knots
rain 1hr
in
rain 24hr
in
rain mn
in
humidity
%
barometer
mb
20260506203057 48 0 0.0 0.0 0.00 0.36 0.32 93 1012.5
20260506201534 48 0 0.0 0.0 0.00 0.36 0.32 92 1012.3
20260506200046 48 0 0.0 0.9 0.00 0.36 0.32 92 1012.1
20260506194536 48 148 0.0 0.9 0.00 0.43 0.32 92 1012.0
20260506193035 48 173 0.0 0.9 0.00 0.43 0.32 91 1012.1
20260506191539 48 0 0.0 0.9 0.00 0.43 0.32 91 1011.8
20260506190046 49 0 0.0 0.9 0.00 0.43 0.32 90 1011.5
20260506184548 49 0 0.0 0.0 0.00 0.43 0.32 89 1011.6
20260506183035 50 0 0.0 0.0 0.00 0.43 0.32 88 1011.4
20260506181538 51 0 0.0 0.0 0.00 0.43 0.32 87 1011.2
20260506180038 53 0 0.0 0.0 0.00 0.43 0.32 84 1011.2
20260506174538 54 0 0.0 3.5 0.00 0.45 0.32 79 1011.0
20260506173047 54 14 1.7 4.3 0.00 0.45 0.32 77 1010.8
20260506171537 54 18 2.6 7.0 0.00 0.45 0.32 78 1010.8
20260506170035 54 358 3.5 7.0 0.00 0.45 0.32 79 1010.6
20260506164545 55 23 3.5 7.0 0.00 0.45 0.32 77 1010.7
20260506163055 55 101 0.0 1.7 0.00 0.45 0.32 82 1010.8
20260506161537 55 0 0.0 2.6 0.00 0.45 0.32 80 1010.7
20260506160036 56 0 0.9 3.5 0.00 0.44 0.31 81 1010.8
20260506154541 55 41 1.7 10.4 0.00 0.44 0.31 75 1010.7
20260506153037 55 10 4.3 8.7 0.00 0.44 0.31 77 1010.9
20260506151540 55 319 5.2 13.0 0.00 0.44 0.31 77 1010.7
20260506150035 55 347 7.0 14.8 0.00 0.44 0.31 77 1010.7
20260506144534 55 323 8.7 15.6 0.00 0.45 0.31 77 1010.7
20260506143039 55 342 5.2 8.7 0.00 0.45 0.31 80 1010.7
20260506141539 54 16 5.2 13.0 0.00 0.45 0.31 79 1010.9
20260506140038 55 25 6.1 12.2 0.00 0.45 0.31 77 1010.8
20260506134535 56 2 7.8 14.8 0.00 0.57 0.31 76 1010.7
20260506133036 54 349 7.8 14.8 0.00 0.57 0.31 82 1010.5
20260506131537 53 28 7.8 15.6 0.00 0.57 0.31 82 1010.8
20260506130040 53 353 9.6 15.6 0.00 0.57 0.31 84 1010.3
20260506124540 52 23 7.8 13.0 0.00 0.57 0.31 85 1010.4
20260506123037 52 338 7.0 13.0 0.00 0.57 0.31 84 1010.3
20260506121543 52 356 6.1 11.3 0.00 0.57 0.31 82 1010.1
20260506120040 52 354 7.0 13.0 0.00 0.57 0.31 82 1010.1
20260506114540 52 15 8.7 12.2 0.00 0.58 0.31 82 1010.0
20260506113038 51 341 7.8 12.2 0.00 0.58 0.31 82 1009.9
20260506111537 51 7 6.1 13.9 0.00 0.58 0.31 84 1009.8
20260506110040 51 25 8.7 14.8 0.00 0.58 0.31 84 1009.9
20260506104536 52 27 7.0 23.5 0.00 0.58 0.31 83 1009.7
20260506103037 52 64 7.8 18.2 0.01 0.58 0.31 84 1009.7
20260506101537 54 0 0.0 0.0 0.04 0.58 0.31 94 1009.6
20260506100038 53 165 0.0 0.9 0.07 0.58 0.31 96 1009.7
20260506094535 51 187 0.0 1.7 0.10 0.59 0.31 95 1009.6
20260506093033 50 171 0.0 0.0 0.11 0.58 0.29 94 1009.5
20260506091532 50 0 0.0 0.9 0.14 0.55 0.26 94 1009.5
20260506090033 50 174 0.0 0.9 0.18 0.52 0.24 94 1009.3
20260506084544 50 0 0.0 0.0 0.18 0.50 0.21 94 1009.2
20260506083038 50 0 0.0 0.0 0.17 0.48 0.18 94 1008.9
20260506081541 50 0 0.0 0.0 0.10 0.40 0.11 94 1008.8
20260506073034 51 0 0.0 0.0 0.00 0.30 0.01 94 1007.9
20260506071539 50 0 0.0 0.0 0.00 0.30 0.01 95 1007.8
20260506061535 49 0 0.0 0.0 0.00 0.29 0.00 95 1007.6
20260506044538 47 0 0.0 0.0 0.00 0.35 0.00 95 1007.5
20260506043035 46 0 0.0 0.9 0.00 0.35 0.00 94 1007.5
20260506041550 47 0 0.0 0.9 0.00 0.35 0.00 95 1007.5
20260506040040 47 0 0.0 0.0 0.00 0.35 0.00 94 1007.6
20260506034547 47 0 0.0 0.0 0.00 0.37 0.00 94 1007.7
20260506033036 47 150 0.0 2.6 0.00 0.37 0.00 94 1007.7
20260506031535 47 0 0.0 0.0 0.00 0.37 0.00 94 1007.5
20260506030038 47 0 0.0 0.9 0.00 0.37 0.00 94 1007.7
20260506024533 47 0 0.0 0.9 0.00 0.37 0.00 93 1008.0
20260506023034 48 169 0.0 1.7 0.00 0.37 0.00 94 1008.1
20260506021533 48 0 0.0 2.6 0.00 0.37 0.00 94 1008.2
20260506020034 48 0 0.0 0.0 0.00 0.37 0.00 94 1008.5
20260506014534 48 0 0.0 1.7 0.00 0.37 0.00 94 1008.8
20260506013048 48 0 0.0 0.0 0.00 0.37 0.00 93 1008.9
20260506011542 48 0 0.0 0.0 0.00 0.37 0.00 93 1009.0
20260506010037 49 0 0.0 0.0 0.00 0.37 0.00 93 1009.3
20260506004534 49 0 0.0 0.0 0.00 0.38 0.00 93 1009.4
20260506003038 49 0 0.0 0.0 0.00 0.38 0.00 92 1009.6
20260506001533 50 0 0.0 0.0 0.00 0.38 0.00 93 1009.9
20260506000033 50 0 0.0 0.0 0.00 0.38 0.00 92 1010.1
20260505234535 50 0 0.0 0.0 0.00 0.38 0.00 92 1010.8
20260505233038 50 0 0.0 0.0 0.00 0.38 0.00 92 1010.8
20260505231537 51 0 0.0 0.0 0.00 0.38 0.00 91 1011.0
20260505230056 51 0 0.0 0.0 0.00 0.38 0.00 90 1010.7
20260505224540 52 0 0.0 2.6 0.00 0.38 0.00 89 1010.9
20260505223038 51 113 0.0 2.6 0.00 0.37 0.00 90 1011.2
20260505221544 51 202 0.0 1.7 0.00 0.37 0.00 90 1011.3
20260505220050 51 113 0.0 0.9 0.00 0.37 0.00 90 1011.4
20260505214537 51 156 0.9 3.5 0.00 0.37 0.37 90 1011.4
20260505213035 51 162 0.9 3.5 0.03 0.37 0.37 89 1011.6
20260505211535 51 141 0.9 2.6 0.03 0.37 0.37 87 1011.7
20260505210037 52 165 1.7 5.2 0.03 0.37 0.37 83 1011.2
20260505204537 53 122 1.7 7.0 0.02 0.36 0.36 84 1012.2